Wind_Speed
20 21 22 24 27 29 32 36 39 41 41 41 42 44 45 47 49 50 52 53 55 56 57 57 58 57 56
21 24 24 27 29 32 35 39 39 39 39 41 43 45 47 48 50 51 52 53 54 55 56 55 54 52 51
20 22 26 29 32 37 40 41 40 40 39 40 42 44 46 48 50 52 51 53 52 53 53 52 50 48 45
23 27 29 33 35 38 39 39 37 39 40 41 42 43 46 49 51 52 51 51 50 48 48 45 42 41 40
25 29 33 35 37 38 37 36 35 34 37 37 39 44 46 47 48 48 48 47 46 45 44 42 41 41 40
32 32 34 36 38 37 35 35 35 34 33 37 39 40 41 43 44 45 44 42 42 41 42 41 41 41 40
31 32 34 35 34 33 34 35 37 38 37 36 35 33 35 36 39 41 41 41 40 39 39 40 40 40 37
31 33 33 33 31 30 31 32 35 39 39 38 39 35 33 32 34 38 40 41 40 37 36 37 37 38 36
31 33 31 29 27 29 30 31 32 36 36 39 43 44 37 34 34 36 36 37 36 35 34 34 34 36 35
31 31 28 25 26 26 29 32 35 38 39 40 41 44 48 44 39 37 36 36 35 34 33 33 33 34 35
30 27 23 23 24 25 28 31 33 35 38 39 40 42 44 47 42 40 40 41 39 37 33 31 32 34 35
25 22 22 22 23 24 26 30 33 35 35 37 39 41 43 45 45 42 40 39 38 35 34 33 32 31 32
20 21 19 20 21 23 25 27 30 34 35 36 36 36 38 41 43 41 41 36 37 38 33 34 36 34 33
19 18 17 18 19 21 22 24 24 27 33 34 33 34 35 35 37 38 39 39 38 38 38 32 33 33 33
17 15 16 18 20 22 24 25 28 29 29 29 31 32 32 32 34 35 36 37 38 39 39 35 32 33 31
14 14 15 18 20 22 25 27 28 30 31 33 34 34 32 30 31 36 35 38 38 37 37 38 35 33 30
12 13 15 17 19 21 23 26 27 28 30 33 34 36 37 38 34 33 39 37 38 37 37 37 37 34 32
Wind_Direction
311 318 317 314 311 309 312 317 318 316 314 314 314 315 316 315 317 317 318 319 318 319 318 316 315 314 312
308 309 310 311 309 309 314 317 316 314 316 316 316 317 317 318 319 319 320 320 321 322 321 319 317 315 315
305 306 305 307 311 313 316 316 314 314 314 315 318 319 319 319 320 322 324 326 324 323 323 322 322 320 318
300 301 305 307 310 312 312 312 312 314 317 320 320 322 321 325 326 326 328 326 328 330 329 328 328 327 327
294 300 303 307 311 310 309 309 311 315 317 319 322 328 329 329 327 327 327 331 334 332 330 330 331 329 330
295 296 302 309 309 310 310 309 310 318 324 326 332 332 330 329 326 326 327 330 330 331 330 328 328 327 329
295 300 306 307 310 309 310 314 317 322 329 332 333 336 333 331 327 325 326 327 325 327 327 324 323 322 325
296 302 305 308 306 309 313 318 322 325 329 333 332 339 341 338 329 326 327 326 326 323 319 318 318 320 324
298 305 305 302 307 313 317 319 322 326 332 334 334 334 340 344 339 335 331 327 327 325 323 323 322 319 322
302 300 298 304 312 316 319 325 330 329 335 341 338 334 338 350 349 342 337 332 334 334 335 332 326 322 323
297 294 299 310 315 320 325 329 332 335 337 339 341 344 344 342 348 347 343 340 342 341 342 337 330 328 325
292 297 306 311 316 324 331 332 334 336 337 341 344 343 340 339 347 348 343 340 340 342 348 343 336 333 328
292 297 305 312 319 328 332 335 335 334 336 338 339 338 337 339 340 343 340 341 343 341 346 348 342 339 332
290 295 304 313 321 327 330 331 330 331 331 332 333 331 335 337 334 336 338 343 342 341 342 348 341 343 339
286 297 308 316 324 327 329 331 332 332 329 328 327 331 332 332 332 334 338 338 340 339 338 344 349 342 342
286 301 311 319 324 327 331 334 336 334 331 330 331 330 330 335 344 337 338 337 337 337 338 340 345 344 344
289 303 313 318 324 329 333 338 339 338 337 337 336 335 337 339 343 345 335 334 332 336 338 341 342 343 342
Height
3160 3157 3155 3152 3149 3145 3142 3138 3135 3130 3125 3120 3115 3110 3104 3099 3093 3086 3080 3073 3065 3058 3050 3042 3034 3027 3019
3154 3152 3149 3146 3142 3139 3136 3131 3127 3122 3117 3112 3106 3101 3096 3090 3083 3076 3069 3061 3053 3044 3036 3029 3020 3013 3005
3149 3146 3144 3140 3137 3133 3130 3125 3121 3115 3110 3105 3099 3093 3087 3080 3073 3065 3057 3049 3042 3034 3026 3016 3008 3001 2994
3143 3141 3138 3135 3132 3128 3123 3119 3115 3110 3103 3098 3092 3085 3078 3070 3061 3053 3046 3039 3032 3022 3014 3006 2999 2992 2984
3138 3135 3132 3128 3125 3121 3116 3112 3109 3105 3097 3093 3087 3078 3069 3061 3052 3045 3038 3030 3022 3015 3007 3000 2992 2985 2978
3131 3128 3125 3122 3118 3113 3109 3105 3101 3098 3094 3085 3079 3070 3063 3054 3046 3038 3030 3024 3017 3009 3001 2993 2986 2979 2973
3124 3122 3119 3114 3110 3105 3101 3096 3091 3087 3084 3080 3074 3067 3058 3050 3040 3032 3024 3018 3011 3003 2995 2987 2980 2973 2966
3118 3115 3110 3106 3103 3099 3095 3090 3084 3079 3075 3070 3063 3059 3052 3045 3036 3027 3019 3011 3003 2997 2990 2982 2974 2966 2959
3110 3107 3103 3100 3096 3092 3088 3085 3081 3074 3069 3061 3053 3048 3046 3040 3031 3022 3015 3007 2998 2991 2983 2974 2967 2959 2952
3103 3101 3097 3093 3090 3086 3082 3077 3070 3065 3060 3055 3048 3040 3030 3026 3022 3015 3007 2999 2992 2984 2975 2967 2959 2951 2945
3097 3094 3090 3087 3084 3081 3076 3070 3065 3059 3053 3048 3042 3033 3026 3018 3016 3007 2998 2990 2982 2975 2969 2961 2953 2945 2939
3090 3087 3084 3081 3079 3075 3069 3064 3058 3053 3049 3042 3035 3028 3021 3014 3007 3003 2995 2986 2978 2971 2964 2957 2950 2943 2936
3083 3081 3079 3076 3073 3068 3065 3060 3054 3048 3042 3038 3032 3027 3019 3011 3003 2997 2989 2985 2975 2967 2962 2953 2944 2937 2929
3078 3076 3074 3071 3068 3065 3062 3058 3054 3048 3040 3035 3030 3023 3017 3010 3002 2995 2986 2977 2972 2963 2956 2952 2943 2935 2927
3073 3071 3068 3066 3063 3061 3057 3053 3048 3043 3039 3034 3027 3020 3014 3006 2999 2990 2982 2975 2968 2959 2952 2947 2941 2931 2924
3068 3066 3065 3062 3059 3056 3052 3048 3043 3037 3031 3025 3020 3015 3010 3004 2993 2984 2978 2969 2963 2956 2949 2940 2935 2928 2921
3063 3062 3061 3059 3056 3052 3049 3044 3039 3033 3027 3020 3013 3006 2999 2993 2990 2981 2970 2965 2957 2951 2944 2937 2929 2923 2916